Location: Pilipovskiye Korichintsy
(49.1833°N, 27.4667°E)
Time: 12:50:32
(UTC+00:00)

Cosmos 1850 Rocket - Pass Details

Date: 14 July 2020
Orbit: 754 x 785 km, 74.0° (Epoch: 07 August)

Event Time Altitude Azimuth Distance (km) Brightness Sun altitude
Exits shadow 01:06:20 - 190° (S) 2,497 6.1 -9.7°
Reaches altitude 10° 01:06:45 10° 189° (S) 2,338 6.0 -9.7°
Maximum altitude 01:12:00 65° 109° (ESE) 866 4.4 -9.1°
Drops below altitude 10° 01:17:18 10° 28° (NNE) 2,352 8.0 -8.5°
Sets 01:19:42 0° 26° (NNE) 3,282 9.0 -8.3°
